• en France
  • Liste des pays
  • À 7 jours
  • Température de l'eau
  • Carte satellitaire
  • Carte météo
  • Widgets météo
  • user-avatar
    Se connecter

    Météo par heure à Malyy Sapozhok

    Ce jour, 24 Mai, Jeudi

    Heure Température Précipitation Vent Pression Humidité
    00:00 +18°C° 0,8 mm 1 m/s 752 mmHg 90%
    01:00 +18°C° 0,5 mm 1 m/s 752 mmHg 91%
    02:00 +18°C° 0,5 mm 1 m/s 752 mmHg 92%
    03:00 +18°C° 0 mm 1 m/s 751 mmHg 92%
    04:00 +18°C° 0,6 mm 1 m/s 751 mmHg 93%
    05:00 +18°C° 0,6 mm 1 m/s 751 mmHg 93%
    06:00 +18°C° 0,6 mm 1 m/s 750 mmHg 93%
    07:00 +18°C° 1 mm 2 m/s 750 mmHg 92%
    08:00 +18°C° 1 mm 2 m/s 750 mmHg 92%
    09:00 +19°C° 0 mm 2 m/s 750 mmHg 91%
    10:00 +19°C° 0,9 mm 2 m/s 750 mmHg 89%
    11:00 +19°C° 0,9 mm 3 m/s 750 mmHg 88%
    12:00 +20°C° 0,9 mm 3 m/s 750 mmHg 86%
    13:00 +20°C° 0,4 mm 4 m/s 750 mmHg 85%
    14:00 +20°C° 0,4 mm 4 m/s 750 mmHg 84%
    15:00 +21°C° 0 mm 4 m/s 750 mmHg 79%
    16:00 +21°C° 0,2 mm 4 m/s 750 mmHg 80%
    17:00 +20°C° 0,2 mm 4 m/s 749 mmHg 81%
    18:00 +20°C° 0,2 mm 4 m/s 749 mmHg 82%
    19:00 +19°C° 0 mm 4 m/s 749 mmHg 84%
    20:00 +18°C° 0 mm 4 m/s 749 mmHg 87%
    21:00 +17°C° 0 mm 4 m/s 749 mmHg 89%
    22:00 +15°C° 0 mm 4 m/s 749 mmHg 89%
    23:00 +15°C° 0 mm 4 m/s 749 mmHg 89%

    Demain, 25 Mai, Vendredi

    Heure Température Précipitation Vent Pression Humidité
    00:00 +15°C° 0 mm 4 m/s 749 mmHg 89%
    01:00 +14°C° 0 mm 4 m/s 749 mmHg 89%
    02:00 +14°C° 0 mm 5 m/s 749 mmHg 89%
    03:00 +13°C° 0 mm 5 m/s 750 mmHg 89%
    04:00 +13°C° 0 mm 5 m/s 750 mmHg 89%
    05:00 +13°C° 0 mm 6 m/s 751 mmHg 89%
    06:00 +13°C° 0 mm 6 m/s 751 mmHg 89%
    07:00 +14°C° 0 mm 7 m/s 751 mmHg 84%
    08:00 +14°C° 0 mm 7 m/s 752 mmHg 79%
    09:00 +15°C° 0 mm 7 m/s 752 mmHg 74%
    10:00 +16°C° 0 mm 7 m/s 752 mmHg 69%
    11:00 +16°C° 0 mm 7 m/s 753 mmHg 64%
    12:00 +17°C° 0 mm 7 m/s 753 mmHg 58%
    13:00 +17°C° 0 mm 7 m/s 753 mmHg 56%
    14:00 +17°C° 0 mm 7 m/s 753 mmHg 54%
    15:00 +17°C° 0 mm 7 m/s 754 mmHg 52%
    16:00 +16°C° 0 mm 7 m/s 754 mmHg 55%
    17:00 +16°C° 0 mm 6 m/s 754 mmHg 58%
    18:00 +15°C° 0 mm 5 m/s 754 mmHg 61%
    19:00 +14°C° 0 mm 5 m/s 755 mmHg 63%
    20:00 +12°C° 0 mm 4 m/s 756 mmHg 64%
    21:00 +11°C° 0 mm 4 m/s 756 mmHg 66%
    22:00 +10°C° 0 mm 4 m/s 757 mmHg 66%
    23:00 +8°C° 0 mm 4 m/s 757 mmHg 67%

    Après-demain, 26 Mai, Samedi

    Heure Température Précipitation Vent Pression Humidité
    00:00 +9°C° 0 mm 3 m/s 758 mmHg 67%
    01:00 +8°C° 0 mm 3 m/s 758 mmHg 69%
    02:00 +8°C° 0 mm 3 m/s 759 mmHg 71%
    03:00 +7°C° 0 mm 3 m/s 759 mmHg 72%
    04:00 +7°C° 0 mm 3 m/s 760 mmHg 72%
    05:00 +8°C° 0 mm 3 m/s 760 mmHg 71%
    06:00 +8°C° 0 mm 3 m/s 761 mmHg 70%
    07:00 +8°C° 0 mm 4 m/s 761 mmHg 64%
    08:00 +11°C° 0 mm 4 m/s 761 mmHg 57%
    09:00 +12°C° 0 mm 5 m/s 762 mmHg 50%
    10:00 +13°C° 0 mm 5 m/s 762 mmHg 49%
    11:00 +14°C° 0 mm 5 m/s 762 mmHg 48%
    12:00 +15°C° 0 mm 4 m/s 762 mmHg 46%
    13:00 +17°C° 0 mm 4 m/s 762 mmHg 46%
    14:00 +17°C° 0 mm 4 m/s 762 mmHg 45%
    15:00 +18°C° 0 mm 3 m/s 761 mmHg 45%
    16:00 +17°C° 0 mm 3 m/s 761 mmHg 48%
    17:00 +17°C° 0 mm 2 m/s 761 mmHg 51%
    18:00 +17°C° 0 mm 2 m/s 761 mmHg 54%
    19:00 +15°C° 0 mm 2 m/s 761 mmHg 57%
    20:00 +13°C° 0 mm 1 m/s 761 mmHg 60%
    21:00 +11°C° 0 mm 1 m/s 761 mmHg 63%
    22:00 +11°C° 0 mm 1 m/s 761 mmHg 64%
    23:00 +10°C° 0 mm 1 m/s 761 mmHg 66%

    27 Mai, Dimanche

    Heure Température Précipitation Vent Pression Humidité
    00:00 +9°C° 0 mm 2 m/s 762 mmHg 67%
    01:00 +8°C° 0 mm 2 m/s 762 mmHg 69%
    02:00 +8°C° 0 mm 2 m/s 762 mmHg 71%
    03:00 +8°C° 0 mm 2 m/s 762 mmHg 73%
    04:00 +8°C° 0 mm 2 m/s 762 mmHg 73%
    05:00 +9°C° 0 mm 2 m/s 762 mmHg 74%
    06:00 +10°C° 0 mm 2 m/s 762 mmHg 75%
    07:00 +12°C° 0 mm 2 m/s 761 mmHg 70%
    08:00 +14°C° 0 mm 2 m/s 761 mmHg 65%
    09:00 +16°C° 0 mm 3 m/s 761 mmHg 60%
    10:00 +17°C° 0 mm 3 m/s 761 mmHg 57%
    11:00 +18°C° 0 mm 3 m/s 760 mmHg 54%
    12:00 +19°C° 0 mm 3 m/s 760 mmHg 52%
    13:00 +19°C° 0 mm 3 m/s 760 mmHg 52%
    14:00 +20°C° 0 mm 3 m/s 759 mmHg 52%
    15:00 +20°C° 0 mm 3 m/s 759 mmHg 52%
    16:00 +20°C° 0 mm 3 m/s 758 mmHg 56%
    17:00 +19°C° 0 mm 3 m/s 757 mmHg 60%
    18:00 +19°C° 0 mm 3 m/s 757 mmHg 64%
    19:00 +17°C° 0 mm 3 m/s 757 mmHg 68%
    20:00 +14°C° 0 mm 3 m/s 756 mmHg 72%
    21:00 +13°C° 0 mm 3 m/s 756 mmHg 77%
    22:00 +12°C° 0 mm 3 m/s 756 mmHg 77%
    23:00 +12°C° 0 mm 3 m/s 755 mmHg 78%

    28 Mai, Lundi

    Heure Température Précipitation Vent Pression Humidité
    00:00 +11°C° 0 mm 3 m/s 755 mmHg 78%
    01:00 +11°C° 0 mm 3 m/s 755 mmHg 78%
    02:00 +11°C° 0 mm 4 m/s 755 mmHg 79%
    03:00 +11°C° 0 mm 4 m/s 755 mmHg 79%
    04:00 +11°C° 0 mm 3 m/s 755 mmHg 80%
    05:00 +12°C° 0 mm 3 m/s 755 mmHg 81%
    06:00 +12°C° 0 mm 3 m/s 755 mmHg 82%
    07:00 +13°C° 0 mm 4 m/s 755 mmHg 78%
    08:00 +15°C° 0 mm 4 m/s 755 mmHg 74%
    09:00 +17°C° 0 mm 5 m/s 756 mmHg 70%
    10:00 +17°C° 0 mm 5 m/s 756 mmHg 62%
    11:00 +19°C° 0 mm 5 m/s 756 mmHg 54%
    12:00 +19°C° 0 mm 6 m/s 757 mmHg 47%
    13:00 +19°C° 0 mm 6 m/s 757 mmHg 45%
    14:00 +19°C° 0 mm 6 m/s 757 mmHg 44%
    15:00 +19°C° 0 mm 6 m/s 757 mmHg 42%
    16:00 +17°C° 0 mm 5 m/s 757 mmHg 47%
    17:00 +17°C° 0 mm 5 m/s 757 mmHg 52%
    18:00 +17°C° 0 mm 4 m/s 758 mmHg 56%
    19:00 +14°C° 0 mm 4 m/s 758 mmHg 59%
    20:00 +12°C° 0 mm 3 m/s 758 mmHg 61%
    21:00 +10°C° 0 mm 3 m/s 759 mmHg 63%
    22:00 +9°C° 0 mm 3 m/s 759 mmHg 64%
    23:00 +9°C° 0 mm 2 m/s 760 mmHg 64%

    29 Mai, Mardi

    Heure Température Précipitation Vent Pression Humidité
    00:00 +8°C° 0 mm 2 m/s 760 mmHg 65%
    01:00 +7°C° 0 mm 2 m/s 760 mmHg 65%
    02:00 +7°C° 0 mm 2 m/s 760 mmHg 66%
    03:00 +7°C° 0 mm 2 m/s 761 mmHg 67%
    04:00 +7°C° 0 mm 2 m/s 761 mmHg 68%
    05:00 +8°C° 0 mm 2 m/s 761 mmHg 69%
    06:00 +9°C° 0 mm 2 m/s 761 mmHg 70%
    07:00 +11°C° 0 mm 3 m/s 761 mmHg 65%
    08:00 +13°C° 0 mm 3 m/s 761 mmHg 60%
    09:00 +15°C° 0 mm 4 m/s 761 mmHg 54%
    10:00 +17°C° 0 mm 4 m/s 760 mmHg 53%
    11:00 +18°C° 0 mm 4 m/s 760 mmHg 52%
    12:00 +19°C° 0 mm 5 m/s 759 mmHg 50%
    13:00 +20°C° 0 mm 5 m/s 759 mmHg 51%
    14:00 +20°C° 0 mm 5 m/s 758 mmHg 52%
    15:00 +21°C° 0 mm 5 m/s 758 mmHg 53%
    16:00 +20°C° 0 mm 5 m/s 757 mmHg 57%
    17:00 +20°C° 0 mm 5 m/s 756 mmHg 61%
    18:00 +20°C° 0 mm 4 m/s 756 mmHg 65%
    19:00 +18°C° 0 mm 4 m/s 755 mmHg 69%
    20:00 +17°C° 0 mm 4 m/s 755 mmHg 73%
    21:00 +14°C° 0 mm 4 m/s 754 mmHg 77%
    22:00 +14°C° 0 mm 4 m/s 754 mmHg 77%
    23:00 +13°C° 0 mm 5 m/s 753 mmHg 76%
    Voir plus